Regional Weather Roundup
Issued by NWS

Home | Current Version | Previous Version | Graphics & Text | Print | Product List | Glossary On
Versions: 1 2 3 4 5 6 7 8 9 10 11 12 13 14 15 16 17 18 19 20 21 22 23 24 25 26 27 28 29 30 31 32 33 34 35 36 37 38 39 40 41 42 43 44 45 46 47 48 49 50
623
ASUS44 KLIX 312105
RWRLA
LOUISIANA WEATHER ROUNDUP
NATIONAL WEATHER SERVICE NEW ORLEANS LA
400 PM CDT FRI OCT 31 2014

NOTE: "FAIR" INDICATES FEW OR NO CLOUDS BELOW 12,000 FEET WITH NO
      SIGNIFICANT WEATHER AND/OR OBSTRUCTIONS TO VISIBILITY.
      SKY/WX - SKY CONDITION AND SIGNIFICANT WEATHER.
      TMP - AIR TEMPERATURE.    DP   - DEWPOINT TEMPERATURE.
      RH  - RELATIVE HUMIDITY.  PRES - PRESSURE.
      HX  - HEAT INDEX.         WCI  - WIND CHILL INDEX.

*  THESE STATIONS ARE NOT NWS OR FAA STATIONS AND ARE NOT UNDER
   NWS QUALITY CONTROL.

LAZ040-048-061>063-065-066-069-312200-
SOUTHEAST LOUISIANA

CITY           SKY/WX    TMP DP  RH WIND       PRES   REMARKS
N.O. AUDUBON     N/A     73 N/A N/A MISG        N/A
N.O. INTL ARPT MOSUNNY   74  44  34 NW21G26   30.01R
N.O. LAKEFRONT SUNNY     74  49  41 NW22      30.01R
N.O. DOWNTOWN* FAIR      73  43  33 NW14G22   30.01S
SLIDELL        SUNNY     74  43  32 N14G24    29.99R
BATON ROUGE    SUNNY     72  44  36 N15G24    30.06R
BOOTHVILLE     SUNNY     73  47  39 NW15G22   29.99R
BELLE CHASSE   MOSUNNY   74  40  29 NW9G23    29.99S
BOGALUSA*        N/A     75  42  30 N17G28    30.02R
NEW ROADS*     FAIR      71  47  41 NW17G28   30.08R
GONZALES*      FAIR      73  46  38 NW14G25   30.04R
HAMMOND*       MOSUNNY   73  41  31 NW15G22   30.04R
HOUMA*         SUNNY     75  43  31 NW16      30.01S
PORT FOURCHON* CLEAR     75  45  33 NW15G24   30.03R

$$

LAZ041-044-053-054-312200-
SOUTHWEST LOUISIANA

CITY           SKY/WX    TMP DP  RH WIND       PRES   REMARKS
LAKE CHARLES   SUNNY     75  44  33 NW16G25   30.10R
LAFAYETTE      SUNNY     74  42  31 N20       30.08R
PATTERSON      SUNNY     73  46  38 N14G20    30.07R
SALT POINT       N/A     76  44  32 N12G23    30.03S
NEW IBERIA     SUNNY     75  43  31 N20G25    30.07R
CHENAULT AIRPK NOT AVBL

$$

LAZ027-028-312200-
CENTRAL LOUISIANA

CITY           SKY/WX    TMP DP  RH WIND       PRES   REMARKS
FORT POLK      SUNNY     71  45  38 NW10      30.12S
ALEXANDRIA INT SUNNY     71  46  40 N14G21    30.10S
ALEXANDRIA     SUNNY     71  47  42 N9G18     30.11S

$$

LAZ001-002-312200-
NORTHWEST LOUISIANA

CITY           SKY/WX    TMP DP  RH WIND       PRES   REMARKS
SHREVEPORT     MOSUNNY   69  45  41 N13G21    30.18S
BARKSDALE AFB  MOSUNNY   67  43  41 N14G21    30.19R
DTN SHREVEPORT MOSUNNY   68  43  40 N13G20    30.19S

$$

LAZ014-016-312200-
NORTHEAST LOUISIANA

CITY           SKY/WX    TMP DP  RH WIND       PRES   REMARKS
MONROE         PTSUNNY   69  44  40 N16       30.15R
TALLULAH       MOSUNNY   66  45  46 N15G23    30.12R

$$




USA.gov is the U.S. government's official web portal to all federal, state and local government web resources and services.